This is the latest recevied weather packets stored in our database for station/object UR3PDA-3. If no packets are shown the sender has not sent any weather packets the latest 1 day(s).
| Time | Temp. | Humidity | Pressure | Rain* | Wind** | Luminosity | Snow |
|---|---|---|---|---|---|---|---|
| 1778146891 | 30° C | 12% | - | - | - | - | - |
| 1778145096 | 31.11° C | - | 983.1 hPa | - | - | - | - |
| 1778144015 | 29.44° C | 10% | 983.3 hPa | - | - | - | - |
| 1778143294 | 28.33° C | 11% | 983.2 hPa | - | - | - | - |
| 1778142934 | 28.33° C | 13% | 983.2 hPa | - | - | - | - |
| 1778142574 | 28.89° C | 11% | 983.1 hPa | - | - | - | - |
| 1778142213 | 28.33° C | 14% | 983.2 hPa | - | - | - | - |
| 1778141853 | 27.78° C | 13% | 983.1 hPa | - | - | - | - |
| 1778141132 | 27.22° C | 14% | 983.2 hPa | - | - | - | - |
| 1778140772 | 27.78° C | 14% | 983.2 hPa | - | - | - | - |
| 1778140051 | 27.78° C | 14% | 983.1 hPa | - | - | - | - |
| 1778139691 | 27.22° C | 16% | 983.3 hPa | - | - | - | - |
| 1778138970 | 26.67° C | 16% | 983.3 hPa | - | - | - | - |
| 1778137889 | 26.11° C | 18% | 983.3 hPa | - | - | - | - |
| 1778137168 | 25.56° C | 18% | 983.3 hPa | - | - | - | - |
| 1778136808 | 25° C | 19% | 983.4 hPa | - | - | - | - |
| 1778136447 | 25° C | 18% | 983.4 hPa | - | - | - | - |
| 1778136087 | 25.56° C | 19% | 983.3 hPa | - | - | - | - |
| 1778135727 | 25° C | 19% | 983.2 hPa | - | - | - | - |
| 1778135006 | 23.89° C | 19% | 983.1 hPa | - | - | - | - |
| 1778134646 | 23.33° C | 19% | 983.1 hPa | - | - | - | - |
| 1778133925 | 23.89° C | 20% | 983.1 hPa | - | - | - | - |
| 1778133565 | 23.33° C | 20% | 983.1 hPa | - | - | - | - |
| 1778132844 | 22.78° C | 20% | 983.1 hPa | - | - | - | - |
| 1778132484 | 22.78° C | 20% | 983 hPa | - | - | - | - |
* Rain since midnight (hover to see other rain measurements)
** Current wind speed in m/s (hover to see current wind gust speed)